sat.trackr.live / text

‹ back to catalog

STARLINK-35504

NORAD 66325 · 2025-253G

PAYLOAD ACTIVE UNKNOWN

§ Identity

Operator
Country
US
Launch date
2025-11-06
Launch site
AFETR
Launch vehicle
Mass (kg)
RCS (m²)

Purposes: comms

External: N2YO · Heavens-Above · Gunter

§ Orbital elements

Epoch: 2026-05-25T00:26:49.072128Z

Period
94.27 min
Inclination
42.9979°
Eccentricity
0.0000473
Mean motion
15.27593921 rev/d
Perigee alt
482.7 km
Apogee alt
483.3 km
Semi-major
6,861.1 km
B*
4.4591e-4
RAAN
141.8213°
Arg perigee
223.7512°
Mean anomaly
136.3302°
Rev number
3,191

§ Raw data

STARLINK-355041 66325U 25253G   26145.01862352  .00012034  00000+0  44591-3 0  99992 66325  42.9979 141.8213 0000473 223.7512 136.3302 15.27593921 31916

JSON: /api/v1/satellites/66325 · /tle

For live sub-satellite position, see the globe view (requires WebGL).

§ Visibility from observer

Set your observer location to see the next 7 days of passes ≥ 10°. The values pass through the URL so the page stays shareable.

No JS? Fill the form by hand. The geolocation button needs JavaScript.